User: anonymous   Login
Location: Unspecified
(0.0000°N, 0.0000°E)
Time: 08:48:11
(UTC+02:00)
Language:

ARIANE 5 R/B - Orbit

View from above orbital plane
View from above orbital plane
View from above satellite
View from above satellite

Ground track
Ground track

The orbit data is extracted from the following two-line orbital elements,

1 28379U 04027B   17147.45572567 -.00000268 +00000-0 +17472-2 0  9993
2 28379 007.2301 335.8070 7288892 058.9201 354.3098 02.07933458097693
Epoch (UTC): 27 May 2017 10:56:14
Eccentricity: 0.7288892
inclination: 7.2301°
perigee height: 651 km
apogee height: 38450 km
right ascension of ascending node: 335.8070°
argument of perigee: 58.9201°
revolutions per day: 2.07933458
mean anomaly at epoch: 354.3098°
orbit number at epoch: 9769

The dashed part of the orbit path shows where the satellite is in the earth's shadow,  

DLR